Meerawa, Australia

11:45 AM AEST on November 18, 2017 (GMT +1000)
Meerawa

Weather History for 94287 - October, 2013

Change the Weather History Date:

Tuesday, October 22, 2013

  Actual Average Record
Temperature  
Mean Temperature 76 °F -  
Max Temperature 82 °F 86 °F - ()
Min Temperature 69 °F 71 °F - ()
Cooling Degree Days 10    
Growing Degree Days 26 (Base 50)    
Moisture  
Dew Point 69 °F    
Average Humidity 83    
Maximum Humidity 100    
Minimum Humidity 56    
Precipitation  
Precipitation 1.26 in 0.11 in - ()
Sea Level Pressure  
Sea Level Pressure 29.92 in    
Wind  
Wind Speed 10 mph ()    
Max Wind Speed 18 mph    
Max Gust Speed -    
Visibility 5.5 miles    
Events Rain    
T = Trace of Precipitation, MM = Missing Value Source: Averaged Metar Reports

Daily Weather History Graph

Daily Weather History Graph

Search for Another Location

Airport or City:

Trip Planner

Search our weather history database for the weather conditions in past years. The results will help you decide how hot, cold, wet, or windy it might be!

Date:

Astronomy

Oct. 22, 2013 Rise Set
Actual Time 5:44 AM AEST 6:18 PM AEST
Civil Twilight 5:22 AM AEST 6:40 PM AEST
Nautical Twilight 4:56 AM AEST 7:06 PM AEST
Astronomical Twilight 4:30 AM AEST 7:33 PM AEST
Moon 9:11 PM AEST (10/22) 7:56 AM AEST (10/22)
Length of Visible Light 13h 18m
Length of Day
12h 34m
Waning Gibbous, 90% of the Moon is Illuminated
Oct 22
Waning Gibbous
Oct 27
Last Quarter
Nov 3
New
Nov 10
First Quarter
Nov 18
Full

Hourly Weather History & Observations

Time (AEST) Temp. Heat Index Dew Point Humidity Pressure Visibility Wind Dir Wind Speed Gust Speed Precip Events Conditions
12:00 AM 72 °F - 67 °F 81% 29.94 in - SE 8.1 mph - -   Overcast
12:00 AM 73.4 °F - 68.0 °F 83% 29.92 in 6.2 mi SE 8.1 mph - N/A Rain Light Rain Showers
12:30 AM 71.6 °F - 66.2 °F 83% 29.92 in 6.2 mi SSE 8.1 mph - N/A   Partly Cloudy
1:00 AM 71 °F - 66 °F 79% 29.92 in - SSE 10.4 mph - -  
1:00 AM 71.6 °F - 66.2 °F 83% 29.92 in 6.2 mi SSE 10.4 mph - N/A   Scattered Clouds
1:30 AM 73.4 °F - 64.4 °F 73% 29.89 in 6.2 mi South 9.2 mph - N/A   Scattered Clouds
2:00 AM 71.6 °F - 66.2 °F 83% 29.89 in 6.2 mi ESE 11.5 mph - N/A   Scattered Clouds
2:30 AM 75.2 °F - 66.2 °F 73% 29.86 in 6.2 mi South 10.4 mph - N/A   Overcast
3:00 AM 72 °F - 68 °F 82% 29.89 in - SE 9.2 mph - -   Overcast
3:00 AM 71.6 °F - 68.0 °F 88% 29.89 in 3.7 mi SE 9.2 mph - N/A Rain Light Rain Showers
3:30 AM 73.4 °F - 66.2 °F 78% 29.86 in 6.2 mi SSE 8.1 mph - N/A   Mostly Cloudy
4:00 AM 74 °F - 66 °F 69% 29.88 in - South 10.4 mph - -  
4:00 AM 73.4 °F - 66.2 °F 78% 29.86 in 6.2 mi South 10.4 mph - N/A   Mostly Cloudy
4:30 AM 73.4 °F - 66.2 °F 78% 29.86 in 6.2 mi South 11.5 mph - N/A   Mostly Cloudy
5:00 AM 75.2 °F - 66.2 °F 73% 29.89 in 6.2 mi South 10.4 mph - N/A   Mostly Cloudy
5:21 AM 71.6 °F - 68.0 °F 88% 29.89 in 3.7 mi SE 12.7 mph - N/A Rain Light Rain Showers
5:30 AM 69.8 °F - 68.0 °F 94% 29.92 in 2.5 mi SSE 10.4 mph - N/A Rain Light Rain Showers
5:55 AM 69.8 °F - 68.0 °F 94% 29.92 in 6.2 mi South 10.4 mph - N/A   Mostly Cloudy
6:00 AM 71 °F - 68 °F 89% 29.93 in 7 mi South 10.4 mph - -   Mostly Cloudy
6:00 AM 69.8 °F - 68.0 °F 94% 29.92 in 6.2 mi South 10.4 mph - N/A   Mostly Cloudy
6:26 AM 71.6 °F - 68.0 °F 88% 29.92 in 3.1 mi South 11.5 mph - N/A Rain Light Rain Showers
6:30 AM 71.6 °F - 68.0 °F 88% 29.92 in 3.1 mi South 12.7 mph - N/A Rain Light Rain Showers
7:00 AM 71 °F - 68 °F 89% 29.95 in - South 12.7 mph - -  
7:00 AM 69.8 °F - 68.0 °F 94% 29.95 in 6.2 mi South 12.7 mph - N/A   Mostly Cloudy
7:30 AM 71.6 °F - 69.8 °F 94% 29.95 in 6.2 mi South 10.4 mph - N/A   Mostly Cloudy
8:00 AM 73.4 °F - 68.0 °F 83% 29.95 in 6.2 mi South 12.7 mph - N/A   Mostly Cloudy
8:30 AM 75.2 °F - 69.8 °F 83% 29.95 in 6.2 mi South 12.7 mph - N/A   Partly Cloudy
9:00 AM 80 °F - 70 °F 63% 29.96 in 19 mi South 10.4 mph - -   Partly Cloudy
9:00 AM 80.6 °F 83.9 °F 69.8 °F 70% 29.95 in 6.2 mi South 10.4 mph - N/A   Partly Cloudy
9:30 AM 80.6 °F 83.2 °F 68.0 °F 65% 29.95 in 6.2 mi South 12.7 mph - N/A   Scattered Clouds
10:00 AM 81 °F - 68 °F 56% 29.95 in - South 13.8 mph - -  
10:00 AM 80.6 °F 83.2 °F 68.0 °F 65% 29.95 in 6.2 mi South 13.8 mph - N/A   Mostly Cloudy
10:30 AM 80.6 °F 83.2 °F 68.0 °F 65% 29.95 in 6.2 mi SSE 15.0 mph - N/A   Mostly Cloudy
11:00 AM 82.4 °F 85.4 °F 68.0 °F 62% 29.92 in 6.2 mi SE 16.1 mph - N/A   Mostly Cloudy
11:30 AM 78.8 °F - 71.6 °F 78% 29.92 in 6.2 mi East 10.4 mph - N/A Rain Light Rain Showers
12:00 PM 80 °F - 71 °F 67% 29.93 in 12 mi SE 11.5 mph - - Rain Light Rain Showers
12:00 PM 78.8 °F - 71.6 °F 78% 29.92 in 6.2 mi SE 11.5 mph - N/A   Mostly Cloudy
12:30 PM 82.4 °F 86.3 °F 69.8 °F 66% 29.92 in 6.2 mi ESE 17.3 mph - N/A   Mostly Cloudy
1:00 PM 78 °F - 70 °F 69% 29.93 in - SE 17.3 mph - -  
1:00 PM 78.8 °F - 69.8 °F 74% 29.92 in 6.2 mi SE 17.3 mph - N/A Rain Light Rain Showers
1:30 PM 77.0 °F - 71.6 °F 83% 29.92 in 1.2 mi SSE 12.7 mph - N/A Rain Light Rain Showers
2:00 PM 77.0 °F - 69.8 °F 78% 29.89 in 6.2 mi South 9.2 mph - N/A   Mostly Cloudy
2:30 PM 80.6 °F 83.9 °F 69.8 °F 70% 29.89 in 6.2 mi South 9.2 mph - N/A   Mostly Cloudy
3:00 PM 77 °F - 73 °F 83% 29.88 in 2 mi ENE 18.4 mph - - Rain Light Rain Showers
3:00 PM 77.0 °F - 73.4 °F 89% 29.89 in 1.9 mi ENE 18.4 mph - N/A Rain Light Rain Showers
3:30 PM 73.4 °F - 71.6 °F 94% 29.89 in 4.3 mi SSE 16.1 mph - N/A Rain Light Rain Showers
4:00 PM 74 °F - 70 °F 83% 29.89 in - South 10.4 mph - -  
4:00 PM 75.2 °F - 69.8 °F 83% 29.89 in 6.2 mi South 10.4 mph - N/A   Mostly Cloudy
4:30 PM 75.2 °F - 69.8 °F 83% 29.86 in 6.2 mi South 10.4 mph - N/A   Mostly Cloudy
5:00 PM 77.0 °F - 69.8 °F 78% 29.86 in 4.3 mi South 8.1 mph - N/A Rain Light Rain Showers
6:00 PM 75 °F - 71 °F 82% 29.90 in - South 8.1 mph - -   Overcast
6:00 PM 75.2 °F - 69.8 °F 83% 29.89 in 6.2 mi South 8.1 mph - N/A   Mostly Cloudy
6:30 PM 73.4 °F - 71.6 °F 94% 29.89 in 4.3 mi South 12.7 mph - N/A Rain Light Rain Showers
7:00 PM 72 °F - 71 °F 97% 29.92 in - South 9.2 mph - -  
7:00 PM 73.4 °F - 71.6 °F 94% 29.92 in 3.1 mi South 9.2 mph - N/A Rain Light Rain Showers
7:30 PM 73.4 °F - 71.6 °F 94% 29.92 in 5.0 mi South 12.7 mph - N/A Rain Rain Showers
8:00 PM 73.4 °F - 71.6 °F 94% 29.92 in 6.2 mi South 10.4 mph - N/A Rain Light Rain Showers
8:30 PM 73.4 °F - 71.6 °F 94% 29.92 in 5.0 mi SSE 15.0 mph - N/A Rain Light Rain Showers
8:37 PM 73.4 °F - 71.6 °F 94% 29.92 in 3.7 mi South 12.7 mph - N/A Rain Light Rain Showers
9:00 PM 72 °F - 71 °F 94% 29.95 in - South 13.8 mph - -   Overcast
9:00 PM 71.6 °F - 71.6 °F 100% 29.95 in 4.3 mi South 13.8 mph - N/A Rain Rain Showers
9:29 PM 73.4 °F - 69.8 °F 88% 29.95 in 5.0 mi South 15.0 mph - N/A Rain Light Rain Showers
9:42 PM 73.4 °F - 69.8 °F 88% 29.95 in 6.2 mi South 13.8 mph - N/A Rain Light Rain Showers
10:00 PM 72 °F - 70 °F 93% 29.96 in - South 11.5 mph - -  
10:00 PM 73.4 °F - 69.8 °F 88% 29.95 in 6.2 mi South 11.5 mph - N/A Rain Light Rain Showers
10:19 PM 73.4 °F - 69.8 °F 88% 29.95 in 3.7 mi SSE 11.5 mph - N/A Rain Rain Showers
10:30 PM 71.6 °F - 71.6 °F 100% 29.95 in 3.1 mi ESE 10.4 mph - N/A Rain Rain Showers
10:43 PM 71.6 °F - 71.6 °F 100% 29.95 in 5.0 mi SE 10.4 mph - N/A Rain Light Rain Showers
11:02 PM 73.4 °F - 69.8 °F 88% 29.95 in 5.0 mi South 12.7 mph - N/A Rain Light Rain Showers
11:12 PM 71.6 °F - 69.8 °F 94% 29.95 in 3.1 mi South 12.7 mph - N/A Rain Rain Showers
11:30 PM 71.6 °F - 71.6 °F 100% 29.95 in 3.7 mi South 13.8 mph - N/A Rain Rain Showers
11:41 PM 73.4 °F - 69.8 °F 88% 29.92 in 5.0 mi South 13.8 mph - N/A   Overcast